Date,TemperatureHighF,TemperatureAvgF,TemperatureLowF,DewpointHighF,DewpointAvgF,DewpointLowF,HumidityHigh,HumidityAvg,HumidityLow,PressureMaxIn,PressureMinIn,WindSpeedMaxMPH,WindSpeedAvgMPH,GustSpeedMaxMPH,PrecipitationSumIn
2013-1-1,30.0,18.3,3.0,17.0,10.7,0.0,90,72,52,30.19,30.04,11,4,17,0.01
2013-1-2,32.0,17.3,3.0,11.0,5.5,-1.0,86,63,34,30.18,30.10,11,5,15,0.00
2013-1-3,27.0,20.4,14.0,9.0,6.2,3.0,68,54,42,30.24,30.13,20,11,27,0.00
2013-1-4,38.0,16.2,-2.0,11.0,4.6,-6.0,86,64,29,30.24,30.17,5,1,8,0.00
2013-1-5,44.0,20.7,6.0,14.0,6.5,-1.0,84,59,20,30.32,30.20,6,1,13,0.00
2013-1-6,45.0,21.3,8.0,17.0,9.6,4.0,87,66,23,30.29,29.95,10,1,21,0.00
2013-1-7,37.0,24.5,11.0,16.0,11.9,7.0,87,61,39,30.02,29.91,16,5,26,0.00
2013-1-8,46.0,32.1,9.0,21.0,12.3,5.0,83,47,25,30.30,29.99,15,6,22,0.00
2013-1-9,47.0,33.5,21.0,23.0,20.0,16.0,83,59,35,30.36,30.12,15,3,22,0.00
2013-1-10,42.0,36.5,26.0,27.0,19.2,14.0,90,51,34,30.12,29.62,17,9,36,0.00
2013-1-11,26.0,20.2,10.0,22.0,4.1,-8.0,84,53,23,29.85,29.65,11,6,24,0.00
2013-1-12,24.0,11.2,-2.0,5.0,-1.8,-8.0,78,57,33,29.88,29.77,9,2,18,0.00
2013-1-13,26.0,13.8,3.0,4.0,-1.6,-6.0,75,52,30,29.88,29.78,10,3,18,0.00
2013-1-14,17.0,11.5,7.0,6.0,0.2,-9.0,80,61,40,30.04,29.82,15,9,22,0.00
2013-1-15,27.0,18.4,6.0,10.0,0.1,-9.0,64,44,32,30.30,30.03,15,9,22,0.00
2013-1-16,37.0,19.8,3.0,15.0,8.0,-1.0,84,62,38,30.38,30.30,11,3,16,0.00
2013-1-17,36.0,20.1,6.0,17.0,10.5,2.0,87,69,41,30.42,30.35,10,2,16,0.00
2013-1-18,42.0,21.9,5.0,19.0,11.7,2.0,88,68,37,30.36,30.28,7,1,10,0.00
2013-1-19,46.0,22.8,6.0,24.0,12.7,2.0,88,70,29,30.40,30.31,8,2,11,0.00
2013-1-20,46.0,24.5,9.0,21.0,13.2,4.0,89,66,34,30.36,30.24,7,1,11,0.00
2013-1-21,48.0,26.0,8.0,19.0,10.3,4.0,90,59,21,30.34,30.24,10,2,14,0.00
2013-1-22,54.0,30.2,14.0,22.0,13.5,8.0,80,56,20,30.37,30.30,6,1,10,0.00
2013-1-23,55.0,35.3,18.0,26.0,19.3,13.0,82,56,23,30.40,30.32,7,1,14,0.00
2013-1-24,49.0,42.0,38.0,39.0,32.4,24.0,95,71,38,30.36,30.29,12,3,22,0.01
2013-1-25,54.0,42.9,36.0,44.0,38.6,34.0,97,86,55,30.34,30.19,12,2,18,0.21
2013-1-26,44.0,40.7,39.0,43.0,39.2,38.0,97,95,91,30.19,29.90,8,3,19,1.15
2013-1-27,46.0,40.1,37.0,40.0,37.1,32.0,96,89,77,30.01,29.88,13,6,25,0.25
2013-1-28,37.0,29.6,17.0,33.0,23.7,14.0,94,79,51,29.88,29.78,13,5,29,0.09
2013-1-29,32.0,22.6,7.0,16.0,11.3,3.0,90,63,42,30.09,29.80,18,7,34,0.01
2013-1-30,48.0,30.4,15.0,25.0,16.6,8.0,86,58,38,30.27,30.09,11,3,18,0.01
2013-1-31,48.0,35.3,21.0,29.0,23.9,18.0,90,66,39,30.32,30.24,11,3,16,0.00
2013-2-1,54.0,32.9,18.0,29.0,22.0,15.0,93,70,25,30.39,30.25,9,1,13,0.01
2013-2-2,51.0,33.3,21.0,32.0,23.2,19.0,91,70,37,30.42,30.35,9,2,12,0.01
2013-2-3,45.0,35.5,27.0,34.0,28.7,24.0,93,77,51,30.35,30.11,11,2,16,0.00
2013-2-4,51.0,33.8,21.0,32.0,23.9,19.0,96,71,33,30.17,30.11,9,2,15,0.01
2013-2-5,55.0,37.0,21.0,30.0,22.5,17.0,89,60,31,30.16,30.03,8,2,14,0.01
2013-2-6,50.0,40.6,30.0,34.0,28.2,24.0,89,63,36,30.14,29.97,10,4,21,0.00
2013-2-7,51.0,35.6,21.0,31.0,24.6,19.0,93,68,34,30.19,30.00,7,1,14,0.01
2013-2-8,42.0,36.7,29.0,32.0,24.6,12.0,85,62,44,30.00,29.71,15,8,34,0.01
2013-2-9,29.0,25.4,22.0,23.0,20.1,15.0,91,81,56,29.85,29.60,19,8,41,0.03
2013-2-10,28.0,24.5,18.0,23.0,19.3,9.0,89,80,69,29.89,29.79,14,5,28,0.01
2013-2-11,29.0,12.9,0.0,21.0,8.5,-4.0,91,83,63,30.03,29.86,9,1,13,0.01
2013-2-12,37.0,16.9,-4.0,16.0,6.4,-8.0,92,67,34,30.20,30.02,10,2,14,0.01
2013-2-13,42.0,24.2,6.0,21.0,13.5,3.0,88,67,38,30.20,30.14,11,3,16,0.01
2013-2-14,43.0,29.8,16.0,26.0,18.1,12.0,87,64,40,30.30,30.12,14,6,23,0.00
2013-2-15,49.0,33.1,17.0,23.0,13.8,6.0,89,51,19,30.43,30.28,15,6,22,0.00
2013-2-16,54.0,32.3,14.0,21.0,10.4,5.0,79,47,15,30.44,30.21,7,2,14,0.00
2013-2-17,51.0,39.2,24.0,15.0,11.5,7.0,65,36,17,30.20,29.87,18,6,32,0.00
2013-2-18,52.0,35.7,21.0,19.0,13.4,6.0,76,43,16,30.12,30.00,10,2,22,0.00
2013-2-19,45.0,35.0,21.0,23.0,14.6,10.0,81,46,27,30.03,29.60,14,5,29,0.00
2013-2-20,34.0,27.6,22.0,26.0,22.3,17.0,92,80,57,29.72,29.54,13,6,23,0.09
2013-2-21,31.0,27.1,18.0,24.0,21.7,13.0,89,80,68,29.92,29.72,15,6,27,0.03
2013-2-22,40.0,23.8,4.0,14.0,9.0,0.0,91,58,25,30.10,29.89,9,1,16,0.01
2013-2-23,42.0,30.3,18.0,23.0,16.5,10.0,82,58,37,30.08,29.78,16,5,31,0.01
2013-2-24,30.0,25.0,18.0,20.0,9.7,3.0,83,54,34,30.03,29.79,21,10,31,0.01
2013-2-25,49.0,33.3,13.0,13.0,8.8,5.0,74,38,19,30.13,29.98,17,5,29,0.00
2013-2-26,42.0,31.1,15.0,12.0,5.3,-2.0,64,35,15,30.14,29.92,22,7,36,0.00
2013-2-27,38.0,27.6,16.0,8.0,1.9,-4.0,60,34,18,30.29,30.13,11,6,18,0.00
2013-2-28,46.0,30.1,12.0,10.0,1.2,-8.0,64,33,10,30.43,30.27,12,5,21,0.00
2013-3-1,55.0,38.6,20.0,22.0,17.9,10.0,77,46,27,30.49,30.38,16,6,24,0.00
2013-3-2,62.0,40.3,20.0,30.0,20.6,17.0,89,53,21,30.49,30.28,10,2,14,0.00
2013-3-3,55.0,46.6,38.0,26.0,21.6,16.0,53,38,21,30.28,29.98,19,8,34,0.00
2013-3-4,55.0,43.5,27.0,27.0,22.5,17.0,76,45,23,30.23,29.93,14,7,28,0.00
2013-3-5,55.0,38.2,20.0,28.0,20.7,16.0,90,55,24,30.26,30.14,10,2,18,0.00
2013-3-6,56.0,47.3,42.0,29.0,25.4,23.0,54,43,28,30.16,30.03,12,7,26,0.00
2013-3-7,55.0,44.1,30.0,27.0,23.0,20.0,71,45,27,30.05,29.96,12,5,28,0.00
2013-3-8,40.0,32.7,24.0,34.0,28.1,22.0,95,85,58,29.96,29.71,13,2,30,0.49
2013-3-9,35.0,29.6,25.0,31.0,26.8,23.0,93,89,75,30.10,29.76,14,5,23,0.18
2013-3-10,44.0,36.9,32.0,29.0,22.0,12.0,82,57,32,30.29,30.07,21,14,29,0.12
2013-3-11,59.0,36.9,18.0,26.0,18.4,13.0,84,53,20,30.29,30.17,8,1,13,0.01
2013-3-12,58.0,39.3,21.0,27.0,23.4,18.0,91,59,24,30.35,30.20,12,3,16,0.00
2013-3-13,62.0,42.6,24.0,35.0,25.3,21.0,89,57,24,30.43,30.34,10,2,15,0.00
2013-3-14,68.0,44.6,26.0,35.0,22.6,14.0,88,52,13,30.45,30.36,9,2,15,0.00
2013-3-15,69.0,52.4,32.0,34.0,25.1,16.0,74,40,13,30.36,30.14,13,5,25,0.00
2013-3-16,64.0,51.0,37.0,35.0,27.9,18.0,81,45,17,30.16,29.97,17,5,28,0.00
2013-3-17,62.0,51.0,34.0,31.0,12.5,-7.0,82,29,6,30.07,29.95,15,7,26,0.00
2013-3-18,62.0,46.0,26.0,27.0,13.2,5.0,54,30,11,30.16,30.03,12,4,23,0.00
2013-3-19,57.0,43.7,27.0,28.0,21.9,18.0,75,45,22,30.27,30.08,12,3,19,0.00
2013-3-20,58.0,45.1,27.0,30.0,25.6,20.0,77,49,30,30.28,29.99,17,6,34,0.00
2013-3-21,62.0,52.7,40.0,32.0,16.6,-8.0,57,29,8,29.99,29.88,13,8,32,0.00
2013-3-22,58.0,42.5,25.0,22.0,6.7,-47.0,64,29,1,29.92,29.82,16,5,29,0.00
2013-3-23,45.0,36.3,18.0,4.0,-2.4,-18.0,54,21,7,30.11,29.87,21,9,36,0.00
2013-3-24,53.0,34.8,12.0,12.0,4.5,0.0,73,35,11,30.12,30.02,16,4,24,0.00
2013-3-25,58.0,37.9,17.0,16.0,10.2,3.0,68,36,16,30.17,30.09,9,2,16,0.00
2013-3-26,59.0,49.7,34.0,20.0,17.3,14.0,51,28,19,30.14,30.02,12,5,27,0.00
2013-3-27,61.0,46.9,27.0,22.0,17.5,15.0,64,34,18,30.15,30.04,11,4,26,0.00
2013-3-28,60.0,51.9,39.0,25.0,21.4,16.0,49,31,23,30.24,30.11,15,6,25,0.00
2013-3-29,65.0,52.6,36.0,32.0,25.5,21.0,65,37,19,30.31,30.23,10,3,20,0.00
2013-3-30,61.0,49.8,32.0,32.0,25.0,-99.9,76,42,25,30.30,30.20,11,2,17,0.00
2013-3-31,64.0,50.6,34.0,30.0,26.8,22.0,70,43,25,30.24,30.12,11,3,21,0.00
2013-4-1,60.0,49.8,31.0,32.0,21.4,9.0,71,36,15,30.13,29.99,18,8,38,0.00
2013-4-2,56.0,42.8,25.0,33.0,23.0,17.0,87,48,26,30.14,30.02,12,4,23,0.00
2013-4-3,61.0,42.2,24.0,32.0,20.8,10.0,93,52,13,30.28,30.13,17,5,25,0.00
2013-4-4,67.0,48.8,26.0,26.0,19.5,14.0,69,37,13,30.29,30.17,8,3,17,0.00
2013-4-5,65.0,56.4,47.0,30.0,22.2,12.0,37,27,13,30.17,30.03,16,6,28,0.00
2013-4-6,66.0,55.4,42.0,31.0,26.8,22.0,55,34,20,30.14,30.02,12,5,25,0.00
2013-4-7,66.0,53.5,39.0,28.0,25.9,21.0,59,36,19,30.08,29.89,12,5,25,0.00
2013-4-8,50.0,43.4,35.0,35.0,30.3,23.0,86,61,42,29.89,29.45,18,9,40,0.07
2013-4-9,45.0,35.8,29.0,31.0,25.2,16.0,94,68,37,29.94,29.51,17,4,25,0.05
2013-4-10,49.0,36.6,29.0,28.0,18.1,7.0,84,52,19,30.11,29.93,22,10,31,0.01
2013-4-11,60.0,46.4,27.0,26.0,21.3,17.0,65,40,22,30.09,29.96,14,4,22,0.00
2013-4-12,61.0,46.6,28.0,30.0,23.4,18.0,66,42,22,30.04,29.96,14,2,26,0.00
2013-4-13,65.0,53.2,31.0,27.0,23.1,19.0,73,34,19,30.05,29.78,21,8,46,0.00
2013-4-14,63.0,53.8,46.0,30.0,26.9,23.0,44,35,26,29.90,29.75,16,9,29,0.00
2013-4-15,58.0,50.6,43.0,34.0,30.3,27.0,58,46,33,29.82,29.72,25,16,40,0.00
2013-4-16,53.0,46.5,36.0,35.0,26.9,16.0,65,47,28,29.86,29.77,19,10,41,0.00
2013-4-17,44.0,35.9,22.0,22.0,14.2,4.0,65,43,19,30.13,29.81,18,6,29,0.00
2013-4-18,46.0,30.5,13.0,10.0,4.0,-3.0,80,38,13,30.31,30.09,17,7,27,0.00
2013-4-19,62.0,39.8,10.0,10.0,3.9,-2.0,62,28,10,30.30,30.11,11,4,21,0.00
2013-4-20,64.0,51.6,33.0,17.0,10.6,0.0,41,21,8,30.22,30.08,18,5,28,0.00
2013-4-21,70.0,50.7,24.0,21.0,15.6,10.0,63,30,11,30.26,30.14,14,4,22,0.00
2013-4-22,71.0,59.1,41.0,21.0,17.1,11.0,36,20,13,30.19,30.00,15,7,32,0.00
2013-4-23,61.0,48.1,24.0,22.0,12.8,-4.0,45,26,9,30.16,29.99,11,4,19,0.00
2013-4-24,66.0,48.7,22.0,22.0,13.8,1.0,48,27,15,30.15,30.06,13,4,26,0.00
2013-4-25,62.0,49.6,30.0,30.0,20.3,10.0,66,35,14,30.20,30.05,13,4,31,0.00
2013-4-26,66.0,55.0,34.0,27.0,19.3,12.0,60,28,13,30.35,30.19,10,4,18,0.00
2013-4-27,70.0,50.3,28.0,25.0,11.9,3.0,70,29,8,30.35,30.23,13,3,22,0.00
2013-4-28,74.0,49.3,31.0,21.0,10.1,4.0,47,25,7,30.27,30.08,10,2,16,0.00
2013-4-29,77.0,60.5,39.0,26.0,16.8,11.0,44,21,8,30.13,29.97,12,3,27,0.00
2013-4-30,72.0,63.8,53.0,24.0,15.6,7.0,26,16,8,30.02,29.92,21,10,40,0.00
2013-5-1,71.0,59.1,45.0,22.0,10.2,-18.0,24,15,4,30.41,30.01,16,7,26,0.00
2013-5-2,59.0,46.0,36.0,10.0,3.6,-8.0,31,19,6,30.54,30.41,21,13,31,0.00
2013-5-3,69.0,47.1,20.0,15.0,4.5,-1.0,44,21,7,30.44,30.09,10,2,15,0.00
2013-5-4,70.0,56.5,36.0,14.0,9.4,1.0,38,17,7,30.10,29.94,10,6,23,0.00
2013-5-5,64.0,53.6,39.0,22.0,18.3,11.0,44,26,16,30.12,29.99,12,5,24,0.00
2013-5-6,58.0,48.7,34.0,42.0,34.1,18.0,87,58,38,30.13,30.06,12,5,26,0.03
2013-5-7,57.0,48.6,36.0,39.0,34.0,22.0,90,59,31,30.11,30.00,21,8,30,0.09
2013-5-8,58.0,45.4,32.0,36.0,30.5,27.0,89,60,32,30.18,30.08,9,3,17,0.08
2013-5-9,57.0,46.0,32.0,37.0,31.8,26.0,89,60,30,30.24,30.13,11,3,19,0.00
2013-5-10,65.0,47.6,26.0,39.0,27.8,-99.9,96,56,23,30.37,30.20,14,4,24,0.01
2013-5-11,67.0,50.8,35.0,39.0,32.3,26.0,84,54,21,30.45,30.34,13,5,27,0.01
2013-5-12,73.0,71.0,67.0,25.0,21.4,17.0,19,15,12,30.43,30.32,11,7,22,0.00
2013-5-13,77.0,76.6,76.0,26.0,23.9,22.0,15,14,13,30.38,30.27,9,2,17,0.00
2013-5-14,76.0,75.5,75.0,30.0,29.5,29.0,19,18,18,30.24,30.18,15,11,22,0.00
2013-5-17,55.0,54.0,54.0,24.0,23.8,23.0,31,31,30,30.11,30.09,6,4,14,0.00
2013-5-18,67.0,56.0,34.0,34.0,27.7,23.0,65,36,21,30.15,30.08,12,4,24,0.00
2013-5-19,71.0,58.3,42.0,32.0,23.5,15.0,60,30,12,30.16,29.99,19,6,34,0.00
2013-5-20,64.0,51.8,36.0,26.0,20.3,13.0,56,32,15,30.21,30.11,18,5,29,0.00
2013-5-21,74.0,55.4,30.0,28.0,20.2,12.0,68,31,9,30.19,30.05,11,3,24,0.00
2013-5-22,74.0,60.1,39.0,25.0,20.8,15.0,43,24,13,30.09,29.96,16,7,32,0.00
2013-5-23,72.0,62.9,54.0,25.0,19.8,14.0,29,20,11,30.09,29.98,18,10,36,0.00
2013-5-24,73.0,60.9,41.0,28.0,17.4,7.0,41,21,8,30.20,30.08,15,6,29,0.00
2013-5-25,73.0,64.7,58.0,23.0,15.3,5.0,22,15,7,30.19,30.11,16,10,29,0.00
2013-5-26,66.0,59.4,55.0,20.0,14.7,11.0,22,17,13,30.22,30.12,11,6,25,0.00
2013-5-27,73.0,63.1,55.0,25.0,20.1,13.0,28,19,12,30.17,30.02,13,5,24,0.00
2013-5-28,70.0,59.1,43.0,34.0,26.8,21.0,43,30,20,30.03,29.86,13,6,30,0.00
2013-5-29,74.0,61.5,42.0,34.0,28.3,25.0,61,31,16,30.01,29.89,18,7,31,0.00
2013-5-30,77.0,63.7,46.0,40.0,33.4,27.0,52,34,19,30.14,30.01,14,6,26,0.00
2013-5-31,81.0,66.8,48.0,43.0,33.1,23.0,66,33,12,30.22,30.12,11,5,18,0.00
2013-6-1,80.0,61.5,44.0,24.0,11.2,4.0,41,15,6,30.31,30.16,15,5,22,0.00
2013-6-2,82.0,64.5,42.0,33.0,24.1,13.0,40,23,12,30.20,30.05,13,4,24,0.00
2013-6-3,81.0,67.3,49.0,33.0,25.5,19.0,50,24,11,30.17,30.08,9,4,22,0.00
2013-6-4,80.0,72.0,61.0,26.0,22.5,14.0,25,16,10,30.20,30.12,11,7,23,0.00
2013-6-5,81.0,72.8,55.0,27.0,23.7,18.0,29,16,11,30.22,30.13,9,4,19,0.00
2013-6-6,84.0,70.0,47.0,30.0,22.8,18.0,44,19,9,30.21,30.11,17,4,30,0.00
2013-6-7,88.0,65.1,42.0,28.0,20.1,6.0,48,23,5,30.22,30.06,11,3,23,0.00
2013-6-8,91.0,75.9,55.0,28.0,20.3,14.0,26,14,6,30.21,30.10,15,6,29,0.00
2013-6-9,92.0,78.5,60.0,32.0,23.9,18.0,28,14,8,30.25,30.14,11,6,28,0.00
2013-6-10,85.0,77.1,66.0,21.0,11.8,-1.0,15,9,4,30.24,30.14,14,8,32,0.00
2013-6-11,85.0,71.4,54.0,35.0,21.2,11.0,37,17,6,30.28,30.18,16,6,32,0.00
2013-6-12,88.0,75.2,56.0,29.0,24.9,19.0,29,16,9,30.33,30.23,12,3,19,0.00
2013-6-13,85.0,71.9,58.0,37.0,31.2,27.0,34,23,14,30.29,30.18,14,5,26,0.00
2013-6-14,83.0,72.7,56.0,32.0,28.2,24.0,34,20,13,30.22,30.11,13,6,29,0.00
2013-6-15,80.0,67.6,52.0,43.0,34.4,29.0,45,30,19,30.27,30.16,15,4,28,0.00
2013-6-16,82.0,67.9,47.0,36.0,29.1,24.0,50,27,13,30.32,30.22,13,4,24,0.00
2013-6-17,82.0,69.2,45.0,29.0,22.1,5.0,44,19,8,30.31,30.17,10,4,22,0.00
2013-6-18,82.0,71.7,48.0,19.0,15.3,9.0,24,12,8,30.22,30.09,13,6,27,0.00
2013-6-19,80.0,71.6,62.0,19.0,15.3,9.0,15,12,9,30.09,30.03,15,9,30,0.00
2013-6-20,80.0,69.1,55.0,22.0,17.4,14.0,26,14,9,30.14,30.07,14,7,30,0.00
2013-6-21,79.0,78.5,78.0,17.0,16.0,15.0,10,10,9,30.15,30.12,13,10,23,0.00
2013-6-22,80.0,74.2,64.0,29.0,25.3,21.0,22,16,13,30.20,30.11,12,7,23,0.00
2013-6-23,79.0,71.1,48.0,26.0,16.9,9.0,35,14,7,30.15,30.04,12,7,26,0.00
2013-6-24,76.0,65.5,54.0,34.0,23.9,16.0,30,21,11,30.16,30.05,16,7,29,0.00
2013-6-25,83.0,72.1,59.0,34.0,27.8,23.0,32,20,15,30.26,30.13,14,8,29,0.00
2013-6-26,86.0,79.6,64.0,27.0,21.5,18.0,20,12,10,30.36,30.26,12,6,21,0.00
2013-6-27,93.0,80.0,57.0,38.0,28.3,19.0,40,17,7,30.43,30.33,11,3,18,0.00
2013-6-28,94.0,77.5,51.0,38.0,30.4,26.0,47,22,9,30.40,30.27,12,4,24,0.00
2013-6-29,91.0,80.9,64.0,37.0,34.0,32.0,34,20,13,30.33,30.21,12,4,22,0.00
2013-6-30,91.0,80.3,62.0,41.0,36.5,30.0,39,23,12,30.29,30.18,14,4,25,0.00
2013-7-1,91.0,80.3,62.0,48.0,39.9,31.0,44,26,12,30.30,30.22,15,6,25,0.00
2013-7-2,79.0,72.2,66.0,52.0,45.1,38.0,43,38,31,30.35,30.26,15,6,27,0.00
2013-7-3,77.0,72.7,66.0,47.0,46.7,46.0,51,41,35,30.25,30.21,10,7,18,0.24
2013-7-4,83.0,76.5,68.0,54.0,48.4,41.0,61,38,27,30.22,30.11,13,6,21,0.13
2013-7-5,82.0,74.8,65.0,55.0,50.4,45.0,60,43,28,30.25,30.11,12,6,24,0.01
2013-7-6,81.0,69.3,54.0,56.0,52.2,46.0,93,58,35,30.25,30.19,16,5,26,0.08
2013-7-7,83.0,66.5,49.0,55.0,48.5,40.0,96,61,22,30.28,30.16,10,2,16,0.01
2013-7-8,87.0,72.7,58.0,50.0,42.9,-99.9,65,39,19,30.35,30.27,10,3,19,0.00
2013-7-9,89.0,73.8,54.0,49.0,39.6,30.0,59,32,13,30.42,30.30,11,3,16,0.00
2013-7-10,88.0,73.8,63.0,54.0,43.5,-99.9,58,38,18,30.35,30.25,10,5,27,0.00
2013-7-11,79.0,71.1,67.0,59.0,55.9,52.0,70,59,41,30.30,30.20,12,7,23,0.00
2013-7-12,80.0,65.5,56.0,58.0,54.2,50.0,94,70,37,30.30,30.22,11,3,24,0.12
2013-7-13,82.0,66.6,50.0,58.0,53.3,49.0,96,66,34,30.35,30.25,19,3,24,0.13
2013-7-14,83.0,68.9,52.0,56.0,51.5,47.0,91,58,30,30.34,30.22,13,2,20,0.01
2013-7-15,82.0,68.2,56.0,58.0,53.3,48.0,88,62,33,30.30,30.16,12,2,25,0.02
2013-7-16,75.0,62.8,57.0,62.0,56.8,53.0,93,82,49,30.35,30.24,10,1,23,0.13
2013-7-17,74.0,64.5,50.0,61.0,55.7,48.0,96,75,49,30.41,30.32,9,2,23,0.04
2013-7-18,82.0,67.2,52.0,59.0,53.8,49.0,96,67,32,30.38,30.22,14,3,20,0.01
2013-7-19,83.0,68.7,56.0,59.0,54.2,49.0,87,63,31,30.33,30.18,12,3,21,0.07
2013-7-20,80.0,68.5,58.0,61.0,52.0,-99.9,93,65,37,30.27,30.11,10,4,17,0.29
2013-7-21,77.0,67.1,60.0,63.0,57.6,52.0,89,73,48,30.34,30.14,12,4,23,0.59
2013-7-22,74.0,65.4,57.0,63.0,57.8,54.0,92,77,58,30.33,30.23,8,3,17,0.10
2013-7-23,79.0,66.2,56.0,63.0,57.8,54.0,93,76,47,30.33,30.24,11,2,20,0.05
2013-7-24,79.0,68.5,54.0,60.0,55.4,51.0,94,66,42,30.31,30.21,12,3,18,0.07
2013-7-25,81.0,68.7,61.0,61.0,58.3,54.0,92,71,45,30.37,30.24,14,5,23,0.14
2013-7-26,80.0,67.6,59.0,62.0,57.6,54.0,93,72,42,30.48,30.34,10,5,24,0.26
2013-7-27,77.0,65.7,57.0,61.0,56.3,53.0,94,73,51,30.41,30.22,13,3,32,0.32
2013-7-28,76.0,64.8,55.0,59.0,54.9,51.0,89,72,46,30.24,30.18,11,4,26,0.16
2013-7-29,78.0,66.5,54.0,56.0,52.1,48.0,91,63,36,30.39,30.23,10,3,23,0.04
2013-7-30,83.0,70.3,54.0,53.0,46.8,39.0,77,47,22,30.49,30.38,8,2,15,0.03
2013-7-31,83.0,69.7,53.0,59.0,50.5,45.0,87,55,28,30.47,30.35,11,3,20,0.01
2013-8-1,81.0,69.8,62.0,57.0,54.6,50.0,80,60,37,30.37,30.24,10,3,21,0.01
2013-8-2,80.0,68.7,59.0,59.0,55.0,52.0,84,63,41,30.33,30.25,10,4,22,0.11
2013-8-3,80.0,70.7,56.0,58.0,54.1,49.0,86,58,34,30.36,30.30,11,4,21,0.05
2013-8-4,80.0,66.9,59.0,60.0,53.7,47.0,88,66,33,30.37,30.31,11,3,19,0.09
2013-8-5,80.0,66.5,52.0,54.0,48.5,42.0,90,56,29,30.37,30.25,11,2,17,0.01
2013-8-6,69.0,63.0,60.0,57.0,49.8,44.0,87,63,41,30.37,30.25,9,2,18,0.07
2013-8-7,73.0,63.3,53.0,57.0,50.5,48.0,95,65,42,30.34,30.25,13,4,23,0.06
2013-8-8,79.0,69.5,53.0,48.0,38.9,32.0,71,36,20,30.29,30.19,7,3,14,0.03
2013-8-9,80.0,67.7,51.0,42.0,33.8,26.0,58,32,14,30.31,30.22,11,3,21,0.01
2013-8-10,78.0,65.9,51.0,50.0,38.4,32.0,65,40,20,30.39,30.28,10,3,19,0.00
2013-8-11,76.0,62.4,47.0,53.0,48.2,43.0,93,63,33,30.39,30.26,13,2,22,0.00
2013-8-12,81.0,65.1,48.0,56.0,44.8,35.0,96,57,20,30.36,30.24,8,2,17,0.02
2013-8-13,83.0,67.7,48.0,49.0,35.7,-99.9,76,37,14,30.37,30.27,8,2,18,0.01
2013-8-14,84.0,71.6,50.0,47.0,41.8,34.0,68,36,24,30.38,30.25,8,2,17,0.00
2013-8-15,76.0,61.6,61.0,54.0,29.4,-99.9,67,44,33,30.41,30.30,13,3,21,0.03
2013-8-16,84.0,65.8,52.0,62.0,46.1,-99.9,84,56,25,30.40,30.33,7,1,18,0.09
2013-8-17,83.0,66.4,59.0,57.0,50.0,-99.9,86,60,28,30.43,30.32,15,3,28,0.10
2013-8-18,80.0,67.3,57.0,56.0,52.1,48.0,81,60,36,30.39,30.28,14,2,20,0.10
2013-8-19,79.0,63.4,54.0,57.0,35.9,-99.9,83,51,36,30.38,30.27,7,2,18,0.02
2013-8-20,83.0,68.3,49.0,55.0,45.5,-99.9,88,51,26,30.32,30.22,11,3,18,0.01
2013-8-21,78.0,68.7,59.0,58.0,52.3,47.0,87,58,35,30.37,30.26,17,4,25,0.17
2013-8-22,78.0,67.4,54.0,55.0,52.6,48.0,90,61,37,30.37,30.23,8,2,17,0.04
2013-8-23,79.0,66.0,50.0,55.0,51.1,46.0,92,61,33,30.28,30.18,9,3,19,0.00
2013-8-24,72.0,62.3,52.0,55.0,49.2,-99.9,90,66,45,30.33,30.22,7,2,18,0.01
2013-8-25,66.0,60.9,57.0,58.0,55.7,52.0,95,84,65,30.39,30.29,9,2,15,0.16
2013-8-26,67.0,60.3,57.0,63.0,58.5,53.0,96,93,83,30.40,30.30,10,1,17,0.10
2013-8-27,71.0,59.8,51.0,60.0,55.8,50.0,98,88,65,30.36,30.29,9,2,12,0.05
2013-8-28,79.0,72.3,61.0,58.0,53.1,45.0,76,53,32,30.35,30.26,12,4,19,0.03
2013-8-29,78.0,70.0,59.0,62.0,57.5,52.0,86,66,49,30.43,30.32,12,4,19,0.02
2013-8-30,75.0,65.3,58.0,62.0,58.4,55.0,92,79,53,30.42,30.30,8,2,17,0.02
2013-8-31,71.0,61.6,57.0,62.0,56.6,-99.9,96,87,70,30.35,30.24,12,2,19,0.02
2013-9-1,79.0,65.9,52.0,60.0,55.9,51.0,98,73,39,30.32,30.22,7,1,13,0.02
2013-9-4,82.0,70.9,57.0,56.0,51.6,46.0,86,53,30,30.39,30.30,11,2,19,0.01
2013-9-5,81.0,67.7,50.0,55.0,48.9,42.0,94,57,25,30.42,30.31,11,2,14,0.01
2013-9-6,82.0,68.1,53.0,54.0,49.3,42.0,84,55,26,30.39,30.25,9,2,19,0.01
2013-9-7,77.0,62.9,56.0,58.0,50.7,-99.9,94,70,40,30.32,30.24,11,2,24,0.12
2013-9-8,65.0,58.2,54.0,58.0,55.7,53.0,97,92,72,30.28,30.14,4,1,12,0.09
2013-9-9,60.0,56.7,49.0,57.0,54.8,48.0,97,94,82,30.15,30.06,6,1,15,0.04
2013-9-10,63.0,56.8,49.0,57.0,53.1,48.0,98,88,72,30.19,30.08,7,3,15,0.05
2013-9-11,68.0,58.5,51.0,55.0,52.3,49.0,95,81,58,30.28,30.19,9,3,17,0.04
2013-9-12,73.0,58.3,43.0,56.0,47.7,42.0,96,72,37,30.29,30.17,9,1,16,0.03
2013-9-13,75.0,60.1,46.0,56.0,49.6,44.0,95,72,39,30.20,30.07,7,1,15,0.03
2013-9-14,74.0,57.5,50.0,57.0,45.8,-99.9,94,75,38,30.15,30.07,10,2,17,0.02
2013-9-19,77.0,63.1,45.0,47.0,41.6,35.0,82,49,27,30.20,30.11,8,1,15,0.01
2013-9-20,76.0,61.6,42.0,48.0,42.8,39.0,91,56,26,30.24,30.14,13,3,22,0.01
2013-9-21,73.0,63.9,49.0,52.0,47.5,43.0,83,57,40,30.22,30.00,12,5,24,0.01
2013-9-22,64.0,58.4,45.0,49.0,35.5,16.0,74,45,16,30.07,29.83,16,8,35,0.01
2013-9-23,71.0,52.2,33.0,35.0,31.4,26.0,82,50,24,30.29,30.06,8,2,13,0.00
2013-9-24,73.0,56.3,33.0,40.0,31.2,26.0,90,47,18,30.28,30.11,11,4,21,0.00
2013-9-25,68.0,61.2,56.0,38.0,33.1,29.0,48,35,25,30.11,29.85,20,12,39,0.00
2013-9-26,65.0,56.5,46.0,45.0,37.0,27.0,78,49,30,29.93,29.82,20,12,39,0.04
2013-9-27,60.0,49.7,29.0,30.0,21.5,12.0,71,36,15,30.25,29.92,11,4,29,0.01
2013-9-28,65.0,43.5,26.0,27.0,20.9,-99.9,86,49,20,30.35,30.24,9,3,14,0.00
2013-9-29,72.0,53.8,31.0,38.0,31.2,25.0,80,47,20,30.36,30.25,10,3,18,0.00
2013-9-30,75.0,62.4,39.0,31.0,27.7,25.0,63,30,17,30.27,30.15,9,5,19,0.00
2013-10-1,69.0,59.5,55.0,31.0,30.2,29.0,37,33,23,30.20,30.15,6,3,14,0.00
2013-10-2,68.0,59.6,50.0,37.0,32.8,26.0,52,37,28,30.23,30.09,13,5,24,0.00
2013-10-3,65.0,58.8,51.0,39.0,33.5,26.0,52,39,29,30.12,29.87,19,10,39,0.00
2013-10-4,53.0,42.4,28.0,26.0,17.8,13.0,76,39,23,30.36,30.05,12,6,20,0.00
2013-10-5,55.0,42.7,24.0,22.0,17.8,9.0,69,38,25,30.44,30.34,16,10,24,0.00
2013-10-6,65.0,47.5,30.0,20.0,14.4,6.0,54,28,14,30.45,30.37,11,6,16,0.00
2013-10-7,72.0,51.5,29.0,27.0,21.0,16.0,67,36,13,30.37,30.16,7,2,20,0.00
2013-10-8,65.0,59.2,52.0,29.0,24.7,19.0,41,27,21,30.15,29.95,19,7,34,0.00
2013-10-9,60.0,53.0,48.0,40.0,29.7,19.0,65,43,22,29.95,29.83,18,8,39,0.00
2013-10-10,48.0,38.9,28.0,37.0,32.7,26.0,93,79,62,30.09,29.78,16,6,34,0.07
2013-10-11,57.0,38.9,23.0,36.0,30.0,21.0,94,74,45,30.18,30.07,7,2,13,0.04
2013-10-12,62.0,44.8,24.0,36.0,26.5,-99.9,95,57,24,30.18,30.11,9,2,18,0.02
2013-10-13,59.0,51.8,45.0,34.0,31.0,25.0,56,45,29,30.12,30.03,15,8,33,0.00
2013-10-14,59.0,45.0,28.0,31.0,24.9,15.0,80,48,23,30.22,30.12,8,3,17,0.00
2013-10-15,59.0,42.7,23.0,29.0,24.1,19.0,89,53,22,30.19,30.05,11,4,20,0.00
2013-10-17,63.0,44.0,22.0,23.0,19.2,11.0,88,46,15,30.23,30.11,9,2,14,0.00
2013-10-18,58.0,43.3,24.0,19.0,16.7,13.0,69,38,17,30.29,30.14,12,5,20,0.00
2013-10-19,62.0,38.9,21.0,20.0,15.5,-99.9,76,46,18,30.29,30.21,9,1,14,0.00
2013-10-20,68.0,45.6,26.0,22.0,15.6,8.0,69,37,10,30.22,30.08,7,1,15,0.00
2013-10-21,62.0,45.0,25.0,21.0,17.4,14.0,67,37,18,30.31,30.16,10,3,17,0.00
2013-10-22,62.0,43.1,23.0,24.0,19.6,16.0,78,45,20,30.34,30.27,10,3,15,0.00
2013-10-23,66.0,49.2,26.0,27.0,21.6,19.0,79,39,18,30.27,30.19,10,2,15,0.00
2013-10-24,65.0,50.4,36.0,29.0,26.1,23.0,63,42,22,30.25,30.19,9,2,19,0.00
2013-10-25,60.0,46.1,28.0,42.0,34.1,23.0,89,65,40,30.36,30.27,8,2,17,0.00
2013-10-26,62.0,44.0,26.0,38.0,27.1,-99.9,95,59,27,30.40,30.32,10,3,17,0.00
2013-10-27,65.0,49.6,28.0,35.0,26.8,22.0,89,47,20,30.32,29.93,10,4,19,0.00
2013-10-28,55.0,49.1,45.0,36.0,27.4,-99.9,65,45,37,29.94,29.88,18,9,40,0.00
2013-10-29,47.0,42.9,38.0,38.0,33.9,28.0,89,71,63,29.99,29.90,13,7,32,0.03
2013-10-30,47.0,38.2,26.0,33.0,26.8,19.0,93,66,37,30.14,29.97,13,3,20,0.03
2013-10-31,56.0,34.9,19.0,27.0,21.1,16.0,90,63,27,30.24,30.13,8,2,14,0.01
2013-11-1,59.0,38.7,19.0,28.0,20.5,16.0,89,53,22,30.34,30.23,10,4,16,0.00
2013-11-2,64.0,41.4,20.0,28.0,16.9,-99.9,85,46,16,30.33,30.08,9,2,18,0.00
2013-11-3,58.0,48.4,36.0,28.0,23.1,17.0,59,37,27,30.06,29.89,17,7,33,0.00
2013-11-4,53.0,44.1,30.0,31.0,25.5,19.0,71,49,37,29.98,29.89,13,5,25,0.00
2013-11-5,44.0,32.3,15.0,27.0,15.7,5.0,82,52,30,30.32,29.99,13,4,19,0.00
2013-11-6,50.0,29.7,9.0,10.0,3.5,-1.0,73,39,12,30.49,30.31,9,3,14,0.00
2013-11-22,36.0,34.1,33.0,35.0,32.9,31.0,96,95,94,30.09,29.98,15,6,18,0.04
2013-11-23,36.0,33.1,32.0,35.0,30.6,-99.9,97,97,95,30.12,30.06,8,3,12,0.05
2013-11-24,35.0,31.5,25.0,33.0,30.1,24.0,97,95,89,30.16,30.08,6,1,8,0.14
2013-11-25,43.0,33.4,20.0,30.0,22.4,18.0,96,67,42,30.32,30.10,17,6,27,0.14
2013-11-26,44.0,35.6,24.0,28.0,24.3,20.0,91,65,47,30.41,30.32,13,6,21,0.48
2013-11-27,40.0,28.9,21.0,32.0,24.9,19.0,95,86,66,30.35,30.17,8,2,12,0.16
2013-11-28,47.0,31.2,18.0,34.0,25.7,16.0,94,82,57,30.25,30.12,6,1,12,0.20
2013-12-3,47.0,42.9,38.0,30.0,24.3,16.0,62,48,30,29.94,29.68,19,10,37,0.01
2013-12-4,41.0,32.3,16.0,34.0,25.2,10.0,92,75,61,29.87,29.60,17,8,31,0.07
2013-12-5,29.0,21.8,13.0,18.0,10.4,4.0,86,63,33,29.88,29.77,9,3,22,0.01
2013-12-6,34.0,22.8,12.0,9.0,4.2,-1.0,60,45,31,30.04,29.89,10,4,16,0.01
2013-12-7,28.0,24.4,21.0,26.0,14.2,-99.9,93,69,41,29.96,29.74,15,9,31,0.00
2013-12-8,31.0,25.9,19.0,27.0,18.9,9.0,93,75,54,29.98,29.74,15,6,28,0.01
2013-12-9,22.0,10.7,-8.0,8.0,-0.4,-12.0,85,62,39,30.35,29.96,16,6,22,0.01
2013-12-10,33.0,9.5,-10.0,10.0,-1.1,-14.0,85,66,33,30.33,30.20,3,0,8,0.00
2013-12-11,35.0,13.2,-6.0,13.0,2.9,-10.0,86,67,36,30.40,30.21,6,1,11,0.00
2013-12-12,41.0,20.0,6.0,19.0,10.7,2.0,87,70,41,30.38,30.13,8,1,10,0.00
2013-12-13,48.0,34.7,19.0,30.0,20.4,14.0,93,60,31,30.23,30.05,13,5,22,0.00
2013-12-14,38.0,30.8,20.0,19.0,14.9,-99.9,78,54,42,30.45,30.22,16,9,23,0.00
2013-12-15,49.0,33.4,17.0,22.0,17.7,11.0,83,57,32,30.46,30.40,10,5,16,0.00
2013-12-16,54.0,33.0,19.0,26.0,19.4,15.0,85,63,25,30.48,30.39,7,1,10,0.00
2013-12-17,52.0,31.9,18.0,29.0,21.9,15.0,90,71,30,30.49,30.34,5,1,9,0.00
2013-12-18,56.0,42.6,28.0,30.0,21.4,16.0,84,48,22,30.33,29.94,7,2,17,0.00
2013-12-19,44.0,39.2,32.0,31.0,25.7,21.0,94,60,40,29.91,29.74,15,7,29,0.00
2013-12-20,35.0,30.8,22.0,32.0,28.8,20.0,96,92,83,29.76,29.70,8,2,12,0.26
2013-12-21,44.0,30.3,19.0,28.0,19.9,-99.9,94,70,50,29.98,29.66,10,4,22,0.07
2013-12-22,41.0,25.9,12.0,21.0,16.2,9.0,91,70,37,30.33,29.97,5,1,9,0.01
2013-12-23,41.0,27.3,13.0,23.0,18.7,10.0,90,72,47,30.46,30.30,9,2,13,0.00
2013-12-24,55.0,32.6,14.0,31.0,20.8,11.0,91,66,32,30.42,30.25,10,2,14,0.00
2013-12-25,42.0,32.7,21.0,23.0,11.9,6.0,77,45,23,30.43,30.36,15,8,23,0.00
2013-12-29,37.0,32.6,21.0,25.0,16.6,4.0,71,52,32,30.25,30.05,20,12,29,0.00
2013-12-30,47.0,29.9,15.0,20.0,12.0,3.0,78,52,17,30.36,30.23,9,1,13,0.00
2013-12-31,57.0,36.6,21.0,25.0,20.5,15.0,81,57,23,30.35,30.22,8,1,12,0.00
2014-1-1,49.0,36.1,25.0,24.0,20.2,15.0,74,54,34,30.35,30.20,17,6,25,0.00
2014-1-2,52.0,32.0,15.0,22.0,15.5,7.0,81,56,17,30.35,30.23,6,1,16,0.00